Location: Newark
(25.0000°N, 73.5000°E)
Time: 12:11:23
(UTC+00:00)

Hubble Space Telescope - Visible Passes

Search period start: 21 January 2021 00:00
Search period end: 31 January 2021 00:00
Orbit: 536 x 539 km, 28.5° (Epoch: 20 January)

Date Brightness Start Highest point End Pass type
(mag) Time Alt. Az. Time Alt. Az. Time Alt. Az.
21 Jan 1.0 13:04:16 10° W 13:08:20 58° N 13:12:26 10° ENE visible
21 Jan 2.4 14:45:42 10° WNW 14:47:58 29° WNW 14:47:58 29° WNW visible
22 Jan 1.7 14:34:54 10° WNW 14:37:51 41° NW 14:37:51 41° NW visible
23 Jan 1.0 14:24:06 10° WNW 14:27:47 60° NNW 14:27:47 60° NNW visible
24 Jan 0.6 14:13:17 10° WNW 14:17:24 74° N 14:17:47 68° ENE visible
25 Jan 0.6 14:02:28 10° WNW 14:06:37 86° NNE 14:07:51 44° E visible
26 Jan 0.8 13:51:40 10° WNW 13:55:48 79° SSW 13:58:01 26° ESE visible
27 Jan 1.1 13:40:52 10° W 13:44:58 65° SSW 13:48:18 15° ESE visible
27 Jan 3.9 15:23:04 10° WSW 15:23:40 12° WSW 15:23:40 12° WSW visible
28 Jan 1.5 13:30:06 10° W 13:34:08 51° SSW 13:38:08 10° SE visible
28 Jan 3.7 15:12:57 10° WSW 15:14:05 13° SW 15:14:05 13° SW visible
29 Jan 2.0 13:19:23 10° W 13:23:16 40° SSW 13:27:08 10° SE visible
30 Jan 2.5 13:08:42 10° W 13:12:23 31° SSW 13:16:04 10° SE visible
